STARLINK-2457, 48321

Orbit data source: Space-Track

STARLINK-2457, 48321 is a payload satellite owned by SpaceX/Seattle (US) in LEO that was launched on Thu, 29 Apr 2021 UTC via an FALCON 9 launch vehicle from the Air Force Eastern Test Range (AFETR). Payload-class satellites include a variety of spacecraft equipped with specific instruments for various scientific and technological missions. These include communications satellites like Starlink; space stations such as the ISS; scientific satellites like the Hubble; Earth observation satellites from companies like Planet Labs, Umbra, and HawkEye 360; GPS; miniature CubeSats for education and research; and military/defense satellites.

Loading next visibility...
Identifier
48321, 2021-036AX
Orbit
LEO
Country
Flag of USUS
Related business
Manufacturer
SpaceX/Seattle
Mission
Operational Commercial Communications
Bus & Motor
STARLINK, Unknown motor
Mass
260 kg wet, ~248 kg dry
Launch date (UTC)
2021-04-29 (5 years ago)
Launch vehicle
FALCON 9
Launch site
Air Force Eastern Test Range (AFETR)
Object type
Payload
Rocket body
Debris
Shape & HBR
Box + 1 Pan, 10.1 m
Radar Cross Section
13.562 m², Large (>1 m²)

Expand to show TLE details & history
Last TLE update: 19 hours ago

TLE from 19 hours ago
0 STARLINK-2457
1 48321U 21036AX  25342.75301235  .00000219  00000-0  33594-4 0  9992
2 48321  53.0533 149.8546 0001371  98.0630 262.0515 15.06409790254322
Epoch: 2025-12-08T18:04Z
TLE epoch observation values (Epoch: 2025-12-08T18:04:20.267Z)
Latitude
0.00004°
Longitude
161.02266°
Altitude
548.192 km
Speed
7.589 km/s
True Right ascension
09h 59m 25s
True Declination
0° 00' 00"
Sunlit
Object was in daylight at epoch
Visualization orbit readout
Latitude
Unknown
Longitude
Unknown
Altitude
Unknown
Speed
Unknown
Apparent Right ascension
Unknown
Apparent Declination
Unknown
Sunlit
N/A
Visualization observer readout
Local Sidereal Time
10:53:46
Azimuth
Unknown
Elevation
Unknown
Doppler factor
Unknown
Orbital elements
Apogee altitude
548.402 km
Perigee altitude
546.503 km
Semi-major axis
6,925.589 km
Eccentricity
0.00014
Inclination
53.0533°
RAAN
149.8546°
Arg. of periapsis
98.063°
True anomaly
262.03594°
Mean anomaly
262.0515°
Eccentric anomaly
262.04372°
Mean motion
3.76581 °/min
Orbital period
95.6 mins
BSTAR
0.000033594
Loading maneuver chart data...
Computing Atmospheric mass density...
Loading historical data...
Loading historical data...
Loading historical data...
Loading historical data...
Loading historical data...
Loading historical data...
Loading historical data...

Documentation

Showing up to 5 results
|